Hourly Data Report for July 11, 2021

MANIWAKI AIRPORT
QUEBEC
Current Station Operator: ECCC - MSC

46°16'29.000" N
75°59'31.000" W
199.70 m
7034482
71721
WMJ

Download Data

Hourly Data (July 2021)
Hourly Data Report for July 11, 2021
TIME
LST
Temp Definition
°C
Dew Point Definition
°C
Rel Hum Definition
%
Precip. Amount Definition
mm

Wind Dir Definition
10's deg

Wind Spd Definition
km/h
Visibility Definition
km
Stn Press Definition
kPa
Hmdx Definition


Wind Chill Definition


Weather Definition


00:00 12.3 12.0 98 0.0 18 2   99.39     LegendNANA
01:00 11.1 10.3 95 0.0   0   99.39     LegendNANA
02:00 10.5 9.9 96 0.0 11 1   99.37     LegendNANA
03:00 10.4 10.0 97 0.0   0   99.34     LegendNANA
04:00 9.9 9.6 98 0.0 0 1   99.36     LegendNANA
05:00 10.3 10.2 99 0.0 1 1   99.38     LegendNANA
06:00 14.3 13.3 94 0.0   0   99.41     LegendNANA
07:00 16.6 13.3 81 0.0 17 3   99.42     LegendNANA
08:00 19.2 14.3 73 0.0 17 4   99.41     LegendNANA
09:00 21.3 13.6 61 0.0 18 3   99.40     LegendNANA
10:00 23.2 13.7 55 0.0 21 4   99.41 26   LegendNANA
11:00 24.5 12.9 48 0.0 24 6   99.39 27   LegendNANA
12:00 25.9 11.9 42 0.0 25 10   99.38 28   LegendNANA
13:00 25.9 10.9 39 0.0 21 10   99.36 28   LegendNANA
14:00 27.1 13.2 42 0.0 22 8   99.36 30   LegendNANA
15:00 26.1 13.6 46 0.0 20 15   99.37 29   LegendNANA
16:00 25.3 13.8 49 0.0 21 16   99.39 29   LegendNANA
17:00 25.0 14.3 52 0.0 21 12   99.38 29   LegendNANA
18:00 24.2 15.1 57 0.0 21 7   99.38 28   LegendNANA
19:00 22.5 16.8 70 0.0 18 3   99.40 28   LegendNANA
20:00 19.1 16.1 83 0.0 18 2   99.42     LegendNANA
21:00 16.6 15.2 91 0.0   0   99.47     LegendNANA
22:00 15.8 14.6 92 0.0   0   99.49     LegendNANA
23:00 14.9 14.0 94 0.0 8 1   99.55     LegendNANA

Notes on Data Quality.

Legend

  • E = Estimated
  • M = Missing
  • NA = Not Available*
  • [empty] = Indicates an unobserved value
Date modified: